CEST,Max TemperatureF,Mean TemperatureF,Min TemperatureF,Max Dew PointF,MeanDew PointF,Min DewpointF,Max Humidity, Mean Humidity, Min Humidity, Max Sea Level PressureIn, Mean Sea Level PressureIn, Min Sea Level PressureIn, Max VisibilityMiles, Mean VisibilityMiles, Min VisibilityMiles, Max Wind SpeedMPH, Mean Wind SpeedMPH, Max Gust SpeedMPH,PrecipitationIn, CloudCover, Events, WindDirDegrees
2013-9-1,63,56,48,54,49,43,93,73,48,30.35,30.31,30.27,15,7,6,14,6,,0.00,4,,259
2013-9-2,67,62,57,59,56,52,100,80,67,30.32,30.25,30.21,14,7,6,15,10,,0.00,7,,265
2013-9-3,76,66,55,63,60,55,100,83,53,30.35,30.31,30.27,12,6,0,8,5,,0.00,4,Fog,280
2013-9-4,79,67,55,63,60,55,100,79,46,30.30,30.19,30.06,9,5,2,10,4,,0.00,3,Fog,73
2013-9-5,88,74,60,63,60,54,94,64,22,30.06,29.90,29.77,19,6,3,12,6,21,0.00,,,128
2013-9-6,76,68,59,63,60,57,94,79,52,29.89,29.78,29.71,14,6,3,14,5,,0.04,7,Rain-Thunderstorm,234
2013-9-7,70,64,57,59,53,43,88,69,37,30.10,30.00,29.89,19,7,6,12,5,,0.00,6,Rain,205
2013-9-8,65,59,53,55,53,50,100,84,58,30.11,30.07,30.04,19,7,5,13,3,,0.67,5,Rain-Hail-Thunderstorm,64
2013-9-9,61,56,50,54,52,50,100,92,70,30.08,30.01,29.92,16,6,3,12,7,,0.94,5,Rain-Thunderstorm,219
2013-9-10,63,56,48,57,52,48,100,91,65,29.94,29.88,29.77,19,6,3,24,8,37,1.06,5,Rain-Hail-Thunderstorm,271
2013-9-11,66,59,52,59,55,52,100,84,62,30.01,29.93,29.74,19,7,4,16,9,30,0.01,5,Rain,336
2013-9-12,66,58,51,57,55,52,100,86,66,30.10,30.03,29.98,18,7,4,12,5,,0.02,6,Rain,302
2013-9-13,61,56,51,61,55,50,100,94,68,30.10,30.06,29.98,9,4,1,13,6,23,0.01,7,Rain,190
2013-9-14,64,58,51,61,57,48,100,88,67,29.98,29.87,29.74,19,6,2,20,11,32,0.08,7,Rain,267
2013-9-15,62,54,46,54,49,45,100,79,49,29.98,29.82,29.53,19,7,4,22,7,38,0.04,5,Rain-Hail,233
2013-9-16,59,52,46,55,45,41,94,72,45,29.57,29.52,29.47,17,7,3,23,14,34,0.12,4,Rain-Thunderstorm,251
2013-9-17,56,50,45,50,47,44,100,83,66,29.58,29.51,29.36,17,7,2,21,10,28,0.12,5,Rain,212
2013-9-18,59,54,49,54,50,44,100,88,58,29.74,29.52,29.33,17,6,1,13,4,23,0.12,6,Rain,265
2013-9-19,58,53,48,55,50,45,100,83,57,29.88,29.80,29.74,19,7,3,22,9,,0.02,6,Rain,236
2013-9-20,61,56,50,57,53,50,100,83,64,30.18,29.97,29.77,16,7,6,13,7,,0.00,6,Rain,275
2013-9-21,64,56,48,56,53,48,100,82,58,30.31,30.25,30.18,14,7,6,11,5,,0.00,7,,211
2013-9-22,66,62,58,63,60,55,100,95,81,30.36,30.32,30.30,6,4,1,12,7,,0.00,8,Rain,239
2013-9-23,69,60,51,63,59,52,100,91,68,30.35,30.27,30.15,15,4,0,10,5,,0.00,7,Fog,253
2013-9-24,66,59,52,59,57,54,100,91,70,30.15,30.04,29.98,5,2,0,8,2,,0.00,8,Fog,77
2013-9-25,68,59,50,59,55,52,100,87,62,29.95,29.87,29.83,6,3,1,7,3,,0.00,6,,14
2013-9-26,62,56,50,57,50,45,100,79,54,30.11,29.99,29.86,18,6,1,14,5,,0.00,6,,21
2013-9-27,61,52,42,50,46,41,93,78,56,30.09,30.05,30.01,17,7,6,12,7,,0.00,4,,75
2013-9-28,64,54,44,48,43,40,87,69,47,30.01,29.92,29.86,19,7,6,17,9,,0.00,,,82
2013-9-29,63,55,47,48,44,41,82,67,43,29.86,29.80,29.77,19,8,6,22,14,30,0.00,,,81
2013-9-30,61,52,44,48,44,41,87,70,50,29.87,29.82,29.77,19,7,6,16,12,,0.00,,,86